"read_dt","SO2 (ppb)","flags","PMT voltage (V)","lamp voltage (V)","lamp intensity (Hz)","internal temp (C)","react chamber temp (C)","sample flow (l/min)","pres (mmHg)","SO2 bkg (ppb)","SO2 coefficient"
2017-05-08 00:00:00,1814E-3,5C000400,-0724,0835,12064,030.8,045.5,0.215,749.6,01.17,0.508
2017-05-08 00:01:00,1715E-3,5C000400,-0724,0836,12033,030.8,045.5,0.215,749.6,01.17,0.508
2017-05-08 00:02:00,1758E-3,5C000400,-0724,0836,12172,030.8,045.5,0.215,749.6,01.17,0.508
2017-05-08 00:03:00,1711E-3,5C000400,-0724,0836,12136,030.8,045.5,0.215,749.6,01.17,0.508
2017-05-08 00:04:00,1721E-3,5C000400,-0724,0837,12118,030.8,045.5,0.215,749.6,01.17,0.508
2017-05-08 00:05:00,1733E-3,5C000400,-0724,0837,12188,030.8,045.5,0.215,749.6,01.17,0.508
2017-05-08 00:06:00,1599E-3,5C000400,-0724,0837,12266,030.8,045.6,0.215,749.6,01.17,0.508
2017-05-08 00:07:00,1771E-3,5C000400,-0724,0837,12039,030.9,045.6,0.215,749.6,01.17,0.508
2017-05-08 00:08:00,1797E-3,5C000400,-0724,0837,11942,030.9,045.5,0.215,749.6,01.17,0.508
2017-05-08 00:09:00,1859E-3,5C000400,-0724,0836,11970,030.9,045.5,0.215,749.6,01.17,0.508
2017-05-08 00:10:00,1720E-3,5C000400,-0724,0837,12172,030.9,045.5,0.215,749.6,01.17,0.508
2017-05-08 00:11:00,1700E-3,5C000400,-0724,0836,12131,030.9,045.6,0.215,749.6,01.17,0.508
2017-05-08 00:12:00,1664E-3,5C000400,-0724,0836,12150,030.9,045.5,0.215,749.5,01.17,0.508
2017-05-08 00:13:00,1731E-3,5C000400,-0724,0837,12122,030.9,045.5,0.215,749.6,01.17,0.508
2017-05-08 00:14:00,1673E-3,5C000400,-0724,0836,12081,030.9,045.5,0.215,749.6,01.17,0.508
2017-05-08 00:15:00,1719E-3,5C000400,-0724,0837,12070,030.9,045.5,0.215,749.6,01.17,0.508
2017-05-08 00:16:00,1710E-3,5C000400,-0724,0836,12119,030.9,045.6,0.215,749.6,01.17,0.508
2017-05-08 00:17:00,1794E-3,5C000400,-0724,0837,12145,030.9,045.6,0.214,749.6,01.17,0.508
2017-05-08 00:18:00,1642E-3,5C000400,-0724,0836,12149,030.9,045.5,0.215,749.6,01.17,0.508
2017-05-08 00:19:00,1687E-3,5C000400,-0724,0836,12123,030.9,045.5,0.215,749.6,01.17,0.508
2017-05-08 00:20:00,1753E-3,5C000400,-0724,0836,12115,030.9,045.5,0.215,749.6,01.17,0.508
2017-05-08 00:21:00,1679E-3,5C000400,-0724,0836,11968,031.0,045.5,0.215,749.6,01.17,0.508
2017-05-08 00:22:00,1825E-3,5C000400,-0724,0836,12120,030.9,045.5,0.215,749.6,01.17,0.508
2017-05-08 00:23:00,1807E-3,5C000400,-0724,0837,12152,031.0,045.5,0.215,749.6,01.17,0.508
2017-05-08 00:24:00,1718E-3,5C000400,-0724,0836,12178,031.0,045.5,0.214,749.6,01.17,0.508
2017-05-08 00:25:00,1628E-3,5C000400,-0724,0836,12101,031.0,045.5,0.215,749.6,01.17,0.508
2017-05-08 00:26:00,1738E-3,5C000400,-0724,0837,12112,031.0,045.5,0.214,749.6,01.17,0.508
2017-05-08 00:27:00,1745E-3,5C000400,-0724,0836,12020,031.0,045.5,0.215,749.6,01.17,0.508
2017-05-08 00:28:00,1694E-3,5C000400,-0724,0837,12055,031.0,045.5,0.215,749.6,01.17,0.508
2017-05-08 00:29:00,1691E-3,5C000400,-0724,0837,12097,031.0,045.5,0.215,749.6,01.17,0.508
2017-05-08 00:30:00,1804E-3,5C000400,-0724,0837,12016,031.0,045.5,0.215,749.6,01.17,0.508
2017-05-08 00:31:00,1677E-3,5C000400,-0724,0837,12027,030.9,045.5,0.214,749.6,01.17,0.508
2017-05-08 00:32:00,1813E-3,5C000400,-0724,0836,12085,030.8,045.5,0.215,749.6,01.17,0.508
2017-05-08 00:33:00,1597E-3,5C000400,-0724,0837,12105,030.6,045.5,0.215,749.7,01.17,0.508
2017-05-08 00:34:00,1739E-3,5C000400,-0724,0837,12096,030.4,045.5,0.214,749.7,01.17,0.508
2017-05-08 00:35:00,1661E-3,5C000400,-0724,0836,11842,030.2,045.5,0.215,749.7,01.17,0.508
2017-05-08 00:36:00,1638E-3,5C000400,-0724,0836,12106,030.0,045.5,0.215,749.7,01.17,0.508
2017-05-08 00:37:00,1631E-3,5C000400,-0724,0837,12111,029.8,045.5,0.215,749.7,01.17,0.508
2017-05-08 00:38:00,1705E-3,5C000400,-0724,0836,12029,029.7,045.5,0.215,749.7,01.17,0.508
2017-05-08 00:39:00,1845E-3,5C000400,-0724,0836,12042,029.6,045.5,0.216,749.7,01.17,0.508
2017-05-08 00:40:00,1754E-3,5C000400,-0724,0835,12186,029.5,045.5,0.216,749.7,01.17,0.508
2017-05-08 00:41:00,1724E-3,5C000400,-0724,0835,11947,029.4,045.5,0.216,749.7,01.17,0.508
2017-05-08 00:42:00,1695E-3,5C000400,-0724,0836,12023,029.4,045.5,0.216,749.7,01.17,0.508
2017-05-08 00:43:00,1783E-3,5C000400,-0724,0836,12052,029.3,045.5,0.217,749.7,01.17,0.508
2017-05-08 00:44:00,1691E-3,5C000400,-0724,0836,12172,029.3,045.5,0.217,749.7,01.17,0.508
2017-05-08 00:45:00,1656E-3,5C000400,-0724,0836,12177,029.3,045.5,0.217,749.7,01.17,0.508
2017-05-08 00:46:00,1795E-3,5C000400,-0724,0835,12130,029.4,045.5,0.217,749.7,01.17,0.508
2017-05-08 00:47:00,1804E-3,5C000400,-0724,0835,12065,029.4,045.5,0.217,749.7,01.17,0.508
2017-05-08 00:48:00,1731E-3,5C000400,-0724,0835,12151,029.5,045.5,0.218,749.7,01.17,0.508
2017-05-08 00:49:00,1623E-3,5C000400,-0724,0835,11863,029.5,045.5,0.217,749.7,01.17,0.508
2017-05-08 00:50:00,1692E-3,5C000400,-0724,0835,12130,029.6,045.5,0.218,749.6,01.17,0.508
2017-05-08 00:51:00,1736E-3,5C000400,-0724,0836,12006,029.6,045.5,0.217,749.7,01.17,0.508
2017-05-08 00:52:00,1672E-3,5C000400,-0724,0836,12037,029.7,045.5,0.217,749.7,01.17,0.508
2017-05-08 00:53:00,1684E-3,5C000400,-0724,0835,11954,029.7,045.5,0.218,749.7,01.17,0.508
2017-05-08 00:54:00,1756E-3,5C000400,-0724,0835,12097,029.8,045.5,0.217,749.7,01.17,0.508
2017-05-08 00:55:00,1645E-3,5C000400,-0724,0835,12183,029.8,045.5,0.217,749.7,01.17,0.508
2017-05-08 00:56:00,1645E-3,5C000400,-0724,0836,12074,029.8,045.5,0.217,749.7,01.17,0.508
2017-05-08 00:57:00,1629E-3,5C000400,-0724,0836,12228,029.9,045.5,0.217,749.6,01.17,0.508
2017-05-08 00:58:00,1748E-3,5C000400,-0724,0836,12186,029.9,045.5,0.217,749.6,01.17,0.508
2017-05-08 00:59:00,1701E-3,5C000400,-0724,0837,12039,030.0,045.5,0.217,749.6,01.17,0.508
2017-05-08 01:00:00,1715E-3,5C000400,-0724,0836,12151,030.0,045.5,0.217,749.6,01.17,0.508
2017-05-08 01:01:00,1677E-3,5C000400,-0724,0836,12131,030.1,045.5,0.217,749.6,01.17,0.508
2017-05-08 01:02:00,1767E-3,5C000400,-0724,0836,11873,030.1,045.5,0.217,749.6,01.17,0.508
2017-05-08 01:03:00,1698E-3,5C000400,-0724,0836,12074,030.1,045.5,0.217,749.6,01.17,0.508
2017-05-08 01:04:00,1742E-3,5C000400,-0724,0837,12125,030.2,045.5,0.217,749.6,01.17,0.508
2017-05-08 01:05:00,1662E-3,5C000400,-0724,0836,12069,030.2,045.5,0.217,749.6,01.17,0.508
2017-05-08 01:06:00,1750E-3,5C000400,-0724,0836,12044,030.2,045.5,0.217,749.7,01.17,0.508
2017-05-08 01:07:00,1701E-3,5C000400,-0724,0836,12108,030.3,045.5,0.216,749.6,01.17,0.508
2017-05-08 01:08:00,1757E-3,5C000400,-0724,0836,12019,030.3,045.5,0.217,749.6,01.17,0.508
2017-05-08 01:09:00,1677E-3,5C000400,-0724,0835,11998,030.3,045.5,0.216,749.6,01.17,0.508
2017-05-08 01:10:00,1789E-3,5C000400,-0724,0836,12034,030.3,045.5,0.217,749.6,01.17,0.508
2017-05-08 01:11:00,1807E-3,5C000400,-0724,0836,12076,030.3,045.5,0.216,749.6,01.17,0.508
2017-05-08 01:12:00,1558E-3,5C000400,-0724,0837,12267,030.2,045.5,0.217,749.6,01.17,0.508
2017-05-08 01:13:00,1614E-3,5C000400,-0724,0836,12051,030.0,045.5,0.217,749.6,01.17,0.508
2017-05-08 01:14:00,1688E-3,5C000400,-0724,0836,12096,029.8,045.5,0.216,749.7,01.17,0.508
2017-05-08 01:15:00,1654E-3,5C000400,-0724,0835,12003,029.6,045.5,0.216,749.7,01.17,0.508
2017-05-08 01:16:00,1840E-3,5C000400,-0724,0836,12126,029.5,045.5,0.216,749.7,01.17,0.508
2017-05-08 01:17:00,1700E-3,5C000400,-0724,0835,12013,029.3,045.5,0.217,749.7,01.17,0.508
2017-05-08 01:18:00,1738E-3,5C000400,-0724,0834,12267,029.2,045.5,0.217,749.7,01.17,0.508
2017-05-08 01:19:00,1791E-3,5C000400,-0724,0835,11913,029.1,045.5,0.217,749.7,01.17,0.508
2017-05-08 01:20:00,1659E-3,5C000400,-0724,0835,12194,029.0,045.5,0.217,749.7,01.17,0.508
2017-05-08 01:21:00,1885E-3,5C000400,-0724,0835,11988,029.0,045.5,0.217,749.7,01.17,0.508
2017-05-08 01:22:00,1708E-3,5C000400,-0724,0835,11998,029.0,045.5,0.218,749.7,01.17,0.508
2017-05-08 01:23:00,1723E-3,5C000400,-0724,0835,12104,028.9,045.5,0.218,749.7,01.17,0.508
2017-05-08 01:24:00,1797E-3,5C000400,-0724,0835,11892,029.0,045.5,0.218,749.7,01.17,0.508
2017-05-08 01:25:00,1667E-3,5C000400,-0724,0835,12161,029.0,045.5,0.218,749.7,01.17,0.508
2017-05-08 01:26:00,1753E-3,5C000400,-0724,0835,12147,029.1,045.5,0.218,749.7,01.17,0.508
2017-05-08 01:27:00,1699E-3,5C000400,-0724,0836,12150,029.1,045.5,0.218,749.6,01.17,0.508
2017-05-08 01:28:00,1805E-3,5C000400,-0724,0836,12029,029.2,045.5,0.218,749.7,01.17,0.508
2017-05-08 01:29:00,1709E-3,5C000400,-0724,0836,12102,029.2,045.5,0.218,749.7,01.17,0.508
2017-05-08 01:30:00,1740E-3,5C000400,-0724,0835,12078,029.2,045.5,0.218,749.7,01.17,0.508
2017-05-08 01:31:00,1668E-3,5C000400,-0724,0835,12069,029.2,045.5,0.218,749.7,01.17,0.508
2017-05-08 01:32:00,1721E-3,5C000400,-0724,0835,12078,029.2,045.5,0.218,749.7,01.17,0.508
2017-05-08 01:33:00,1805E-3,5C000400,-0724,0836,12260,029.2,045.5,0.218,749.7,01.17,0.508
2017-05-08 01:34:00,1615E-3,5C000400,-0724,0834,12053,029.1,045.5,0.218,749.7,01.17,0.508
2017-05-08 01:35:00,1565E-3,5C000400,-0724,0835,12171,029.0,045.5,0.218,749.7,01.17,0.508
2017-05-08 01:36:00,1784E-3,5C000400,-0724,0835,12135,028.9,045.5,0.218,749.8,01.17,0.508
2017-05-08 01:37:00,1743E-3,5C000400,-0724,0835,12110,028.7,045.5,0.219,749.8,01.17,0.508
2017-05-08 01:38:00,1646E-3,5C000400,-0724,0835,12325,028.6,045.5,0.218,749.8,01.17,0.508
2017-05-08 01:39:00,1788E-3,5C000400,-0724,0835,12112,028.6,045.5,0.219,749.8,01.17,0.508
2017-05-08 01:40:00,1872E-3,5C000400,-0724,0835,11967,028.6,045.5,0.219,749.8,01.17,0.508
2017-05-08 01:41:00,1777E-3,5C000400,-0724,0835,12080,028.6,045.5,0.219,749.8,01.17,0.508
2017-05-08 01:42:00,1663E-3,5C000400,-0724,0834,12224,028.6,045.5,0.219,749.7,01.17,0.508
2017-05-08 01:43:00,1847E-3,5C000400,-0724,0835,12066,028.5,045.5,0.219,749.8,01.17,0.508
2017-05-08 01:44:00,1735E-3,5C000400,-0724,0835,12041,028.4,045.5,0.219,749.8,01.17,0.508
2017-05-08 01:45:00,1664E-3,5C000400,-0724,0834,12072,028.3,045.5,0.219,749.8,01.17,0.508
2017-05-08 01:46:00,1722E-3,5C000400,-0724,0835,12027,028.3,045.5,0.219,749.8,01.17,0.508
2017-05-08 01:47:00,1776E-3,5C000400,-0724,0835,12210,028.3,045.5,0.219,749.8,01.17,0.508
2017-05-08 01:48:00,1767E-3,5C000400,-0724,0835,12117,028.3,045.5,0.220,749.8,01.17,0.508
2017-05-08 01:49:00,1723E-3,5C000400,-0724,0835,12082,028.3,045.5,0.219,749.8,01.17,0.508
2017-05-08 01:50:00,1812E-3,5C000400,-0724,0836,12025,028.2,045.5,0.220,749.8,01.17,0.508
2017-05-08 01:51:00,1816E-3,5C000400,-0724,0835,12162,028.1,045.5,0.220,749.8,01.17,0.508
2017-05-08 01:52:00,1681E-3,5C000400,-0724,0835,12011,028.2,045.5,0.220,749.8,01.17,0.508
2017-05-08 01:53:00,1725E-3,5C000400,-0724,0834,11932,028.2,045.4,0.220,749.8,01.17,0.508
2017-05-08 01:54:00,1856E-3,5C000400,-0724,0834,12189,028.1,045.5,0.220,749.8,01.17,0.508
2017-05-08 01:55:00,1748E-3,5C000400,-0724,0835,12059,028.1,045.4,0.220,749.8,01.17,0.508
2017-05-08 01:56:00,1762E-3,5C000400,-0724,0835,12383,028.1,045.4,0.220,749.8,01.17,0.508
2017-05-08 01:57:00,1844E-3,5C000400,-0724,0835,12151,028.1,045.5,0.220,749.8,01.17,0.508
2017-05-08 01:58:00,1698E-3,5C000400,-0724,0834,12180,028.1,045.5,0.220,749.7,01.17,0.508
2017-05-08 01:59:00,1661E-3,5C000400,-0724,0835,12035,028.0,045.5,0.220,749.7,01.17,0.508
2017-05-08 02:00:00,1758E-3,5C000400,-0724,0834,11967,028.0,045.5,0.221,749.7,01.17,0.508
2017-05-08 02:01:00,1689E-3,5C000400,-0724,0834,11897,028.0,045.4,0.220,749.7,01.17,0.508
2017-05-08 02:02:00,1648E-3,5C000400,-0724,0834,12035,028.0,045.5,0.220,749.7,01.17,0.508
2017-05-08 02:03:00,1661E-3,5C000400,-0724,0835,12004,028.0,045.5,0.221,749.7,01.17,0.508
2017-05-08 02:04:00,1780E-3,5C000400,-0724,0834,12026,027.9,045.5,0.220,749.7,01.17,0.508
2017-05-08 02:05:00,1602E-3,5C000400,-0724,0835,12098,028.0,045.5,0.221,749.7,01.17,0.508
2017-05-08 02:06:00,1659E-3,5C000400,-0724,0835,12142,028.1,045.5,0.220,749.7,01.17,0.508
2017-05-08 02:07:00,1702E-3,5C000400,-0724,0836,12081,028.1,045.4,0.221,749.7,01.17,0.508
2017-05-08 02:08:00,1719E-3,5C000400,-0724,0835,12072,028.2,045.5,0.221,749.7,01.17,0.508
2017-05-08 02:09:00,1720E-3,5C000400,-0724,0835,12088,028.3,045.5,0.221,749.7,01.17,0.508
2017-05-08 02:10:00,1724E-3,5C000400,-0724,0835,12045,028.4,045.5,0.221,749.6,01.17,0.508
2017-05-08 02:11:00,1626E-3,5C000400,-0724,0835,12192,028.4,045.5,0.221,749.6,01.17,0.508
2017-05-08 02:12:00,1741E-3,5C000400,-0724,0836,12200,028.4,045.5,0.221,749.6,01.17,0.508
2017-05-08 02:13:00,1832E-3,5C000400,-0724,0835,12081,028.3,045.5,0.220,749.7,01.17,0.508
2017-05-08 02:14:00,1628E-3,5C000400,-0724,0835,12129,028.3,045.5,0.220,749.7,01.17,0.508
2017-05-08 02:15:00,1705E-3,5C000400,-0724,0835,12072,028.2,045.5,0.220,749.7,01.17,0.508
2017-05-08 02:16:00,1741E-3,5C000400,-0724,0836,12213,028.1,045.5,0.220,749.7,01.17,0.508
2017-05-08 02:17:00,1764E-3,5C000400,-0724,0835,12068,028.1,045.5,0.220,749.7,01.17,0.508
2017-05-08 02:18:00,1629E-3,5C000400,-0724,0835,12109,028.1,045.5,0.220,749.7,01.17,0.508
2017-05-08 02:19:00,1779E-3,5C000400,-0724,0835,11981,028.1,045.5,0.220,749.7,01.17,0.508
2017-05-08 02:20:00,1628E-3,5C000400,-0724,0836,12067,028.1,045.4,0.220,749.7,01.17,0.508
2017-05-08 02:21:00,1772E-3,5C000400,-0724,0836,12099,028.0,045.4,0.220,749.7,01.17,0.508
2017-05-08 02:22:00,1758E-3,5C000400,-0724,0835,11949,027.9,045.5,0.221,749.7,01.17,0.508
2017-05-08 02:23:00,1884E-3,5C000400,-0724,0835,12124,027.9,045.5,0.220,749.7,01.17,0.508
2017-05-08 02:24:00,1897E-3,5C000400,-0724,0834,11881,027.9,045.5,0.221,749.7,01.17,0.508
2017-05-08 02:25:00,1710E-3,5C000400,-0724,0835,12073,028.0,045.5,0.220,749.7,01.17,0.508
2017-05-08 02:26:00,1692E-3,5C000400,-0724,0835,12079,028.0,045.5,0.221,749.7,01.17,0.508
2017-05-08 02:27:00,1752E-3,5C000400,-0724,0836,11959,027.9,045.5,0.221,749.7,01.17,0.508
2017-05-08 02:28:00,1810E-3,5C000400,-0724,0835,12227,027.9,045.5,0.221,749.7,01.17,0.508
2017-05-08 02:29:00,1748E-3,5C000400,-0724,0834,12071,027.8,045.4,0.221,749.7,01.17,0.508
2017-05-08 02:30:00,1720E-3,5C000400,-0724,0834,11969,027.8,045.5,0.221,749.7,01.17,0.508
2017-05-08 02:31:00,1733E-3,5C000400,-0724,0835,12062,027.8,045.5,0.221,749.7,01.17,0.508
2017-05-08 02:32:00,1736E-3,5C000400,-0724,0835,12122,027.8,045.5,0.221,749.7,01.17,0.508
2017-05-08 02:33:00,1633E-3,5C000400,-0724,0835,12109,027.8,045.4,0.221,749.7,01.17,0.508
2017-05-08 02:34:00,1637E-3,5C000400,-0724,0835,12187,027.8,045.5,0.221,749.7,01.17,0.508
2017-05-08 02:35:00,1683E-3,5C000400,-0724,0835,12211,027.8,045.4,0.221,749.7,01.17,0.508
2017-05-08 02:36:00,1786E-3,5C000400,-0724,0835,11965,027.8,045.4,0.221,749.7,01.17,0.508
2017-05-08 02:37:00,1743E-3,5C000400,-0724,0834,11996,027.8,045.4,0.221,749.7,01.17,0.508
2017-05-08 02:38:00,1743E-3,5C000400,-0724,0836,12132,027.8,045.5,0.221,749.7,01.17,0.508
2017-05-08 02:39:00,1607E-3,5C000400,-0724,0834,11981,027.8,045.5,0.221,749.7,01.17,0.508
2017-05-08 02:40:00,1737E-3,5C000400,-0724,0835,12052,027.7,045.5,0.221,749.8,01.17,0.508
2017-05-08 02:41:00,1842E-3,5C000400,-0724,0835,12074,027.7,045.5,0.221,749.8,01.17,0.508
2017-05-08 02:42:00,1663E-3,5C000400,-0724,0835,12117,027.7,045.4,0.221,749.8,01.17,0.508
2017-05-08 02:43:00,1734E-3,5C000400,-0724,0835,12068,027.7,045.4,0.221,749.8,01.17,0.508
2017-05-08 02:44:00,1745E-3,5C000400,-0724,0834,12162,027.7,045.4,0.221,749.8,01.17,0.508
2017-05-08 02:45:00,1737E-3,5C000400,-0724,0835,12008,027.7,045.5,0.221,749.8,01.17,0.508
2017-05-08 02:46:00,1892E-3,5C000400,-0724,0835,12175,027.7,045.5,0.221,749.8,01.17,0.508
2017-05-08 02:47:00,1680E-3,5C000400,-0724,0835,12014,027.7,045.4,0.221,749.8,01.17,0.508
2017-05-08 02:48:00,1834E-3,5C000400,-0724,0835,12213,027.8,045.4,0.222,749.8,01.17,0.508
2017-05-08 02:49:00,1695E-3,5C000400,-0724,0835,12158,027.7,045.4,0.221,749.8,01.17,0.508
2017-05-08 02:50:00,1684E-3,5C000400,-0724,0835,12047,027.7,045.4,0.222,749.8,01.17,0.508
2017-05-08 02:51:00,1660E-3,5C000400,-0724,0835,12064,027.7,045.5,0.221,749.8,01.17,0.508
2017-05-08 02:52:00,1717E-3,5C000400,-0724,0835,12148,027.7,045.4,0.221,749.8,01.17,0.508
2017-05-08 02:53:00,1748E-3,5C000400,-0724,0835,12067,027.7,045.5,0.221,749.8,01.17,0.508
2017-05-08 02:54:00,1637E-3,5C000400,-0724,0835,12055,027.7,045.4,0.221,749.8,01.17,0.508
2017-05-08 02:55:00,1631E-3,5C000400,-0724,0834,12170,027.7,045.4,0.222,749.8,01.17,0.508
2017-05-08 02:56:00,1690E-3,5C000400,-0724,0835,12261,027.7,045.5,0.221,749.8,01.17,0.508
2017-05-08 02:57:00,1834E-3,5C000400,-0724,0836,12081,027.6,045.4,0.222,749.8,01.17,0.508
2017-05-08 02:58:00,1675E-3,5C000400,-0724,0835,12215,027.6,045.5,0.221,749.8,01.17,0.508
2017-05-08 02:59:00,1760E-3,5C000400,-0724,0836,12030,027.6,045.4,0.222,749.8,01.17,0.508
2017-05-08 03:00:00,1673E-3,5C000400,-0724,0836,11981,027.6,045.4,0.221,749.8,01.17,0.508
2017-05-08 03:01:00,1739E-3,5C000400,-0724,0836,12000,027.7,045.5,0.222,749.8,01.17,0.508
2017-05-08 03:02:00,1753E-3,5C000400,-0724,0835,12165,027.7,045.4,0.222,749.8,01.17,0.508
2017-05-08 03:03:00,1726E-3,5C000400,-0724,0835,12092,027.7,045.4,0.222,749.8,01.17,0.508
2017-05-08 03:04:00,1916E-3,5C000400,-0724,0835,12089,027.6,045.4,0.222,749.8,01.17,0.508
2017-05-08 03:05:00,1804E-3,5C000400,-0724,0835,11905,027.6,045.4,0.221,749.8,01.17,0.508
2017-05-08 03:06:00,1699E-3,5C000400,-0724,0835,12067,027.6,045.4,0.222,749.8,01.17,0.508
2017-05-08 03:07:00,1619E-3,5C000400,-0724,0835,12106,027.6,045.4,0.221,749.8,01.17,0.508
2017-05-08 03:08:00,1743E-3,5C000400,-0724,0835,11972,027.6,045.4,0.222,749.8,01.17,0.508
2017-05-08 03:09:00,1726E-3,5C000400,-0724,0835,12018,027.6,045.5,0.221,749.8,01.17,0.508
2017-05-08 03:10:00,1577E-3,5C000400,-0724,0836,12023,027.6,045.4,0.222,749.8,01.17,0.508
2017-05-08 03:11:00,1791E-3,5C000400,-0724,0835,12071,027.6,045.5,0.222,749.8,01.17,0.508
2017-05-08 03:12:00,1748E-3,5C000400,-0724,0836,12118,027.6,045.5,0.222,749.8,01.17,0.508
2017-05-08 03:13:00,1840E-3,5C000400,-0724,0835,12002,027.6,045.4,0.222,749.8,01.17,0.508
2017-05-08 03:14:00,1735E-3,5C000400,-0724,0834,12088,027.6,045.4,0.222,749.8,01.17,0.508
2017-05-08 03:15:00,1694E-3,5C000400,-0724,0835,12138,027.7,045.4,0.221,749.8,01.17,0.508
2017-05-08 03:16:00,1761E-3,5C000400,-0724,0836,12200,027.6,045.4,0.222,749.8,01.17,0.508
2017-05-08 03:17:00,1693E-3,5C000400,-0724,0835,12069,027.6,045.4,0.222,749.8,01.17,0.508
2017-05-08 03:18:00,1601E-3,5C000400,-0724,0835,12213,027.6,045.4,0.222,749.8,01.17,0.508
2017-05-08 03:19:00,1686E-3,5C000400,-0724,0835,12131,027.6,045.5,0.222,749.8,01.17,0.508
2017-05-08 03:20:00,1700E-3,5C000400,-0724,0837,12206,027.6,045.4,0.222,749.8,01.17,0.508
2017-05-08 03:21:00,1751E-3,5C000400,-0724,0835,12000,027.6,045.4,0.222,749.8,01.17,0.508
2017-05-08 03:22:00,1679E-3,5C000400,-0724,0835,12174,027.6,045.4,0.222,749.8,01.17,0.508
2017-05-08 03:23:00,1856E-3,5C000400,-0724,0835,12022,027.6,045.4,0.222,749.9,01.17,0.508
2017-05-08 03:24:00,1649E-3,5C000400,-0724,0835,12011,027.5,045.4,0.222,749.9,01.17,0.508
2017-05-08 03:25:00,1698E-3,5C000400,-0724,0835,12128,027.5,045.4,0.222,749.9,01.17,0.508
2017-05-08 03:26:00,1540E-3,5C000400,-0724,0835,12039,027.5,045.4,0.221,749.9,01.17,0.508
2017-05-08 03:27:00,1774E-3,5C000400,-0724,0835,12088,027.5,045.5,0.222,749.8,01.17,0.508
2017-05-08 03:28:00,1716E-3,5C000400,-0724,0834,12091,027.5,045.4,0.222,749.8,01.17,0.508
2017-05-08 03:29:00,1834E-3,5C000400,-0724,0834,12120,027.5,045.5,0.222,749.9,01.17,0.508
2017-05-08 03:30:00,1744E-3,5C000400,-0724,0835,12028,027.5,045.5,0.222,749.8,01.17,0.508
2017-05-08 03:31:00,1765E-3,5C000400,-0724,0835,12111,027.5,045.4,0.222,749.9,01.17,0.508
2017-05-08 03:32:00,1642E-3,5C000400,-0724,0835,12138,027.4,045.4,0.222,749.9,01.17,0.508
2017-05-08 03:33:00,1765E-3,5C000400,-0724,0835,12129,027.5,045.4,0.222,749.9,01.17,0.508
2017-05-08 03:34:00,1696E-3,5C000400,-0724,0835,12056,027.4,045.4,0.222,749.9,01.17,0.508
2017-05-08 03:35:00,1589E-3,5C000400,-0724,0835,12093,027.4,045.4,0.222,749.9,01.17,0.508
2017-05-08 03:36:00,1642E-3,5C000400,-0724,0836,11930,027.5,045.4,0.222,749.9,01.17,0.508
2017-05-08 03:37:00,1770E-3,5C000400,-0724,0835,12190,027.4,045.4,0.222,749.9,01.17,0.508
2017-05-08 03:38:00,1751E-3,5C000400,-0724,0835,12002,027.4,045.4,0.222,749.9,01.17,0.508
2017-05-08 03:39:00,1716E-3,5C000400,-0724,0836,12207,027.4,045.4,0.222,749.9,01.17,0.508
2017-05-08 03:40:00,1810E-3,5C000400,-0724,0835,12119,027.5,045.4,0.222,749.9,01.17,0.508
2017-05-08 03:41:00,1558E-3,5C000400,-0724,0835,12028,027.4,045.5,0.222,749.9,01.17,0.508
2017-05-08 03:42:00,1671E-3,5C000400,-0724,0835,12024,027.4,045.5,0.222,749.8,01.17,0.508
2017-05-08 03:43:00,1753E-3,5C000400,-0724,0835,12175,027.4,045.4,0.222,749.8,01.17,0.508
2017-05-08 03:44:00,1631E-3,5C000400,-0724,0834,11989,027.4,045.4,0.222,749.8,01.17,0.508
2017-05-08 03:45:00,1721E-3,5C000400,-0724,0834,12133,027.4,045.4,0.222,749.8,01.17,0.508
2017-05-08 03:46:00,1703E-3,5C000400,-0724,0835,12176,027.4,045.4,0.222,749.8,01.17,0.508
2017-05-08 03:47:00,1684E-3,5C000400,-0724,0835,12099,027.4,045.4,0.222,749.8,01.17,0.508
2017-05-08 03:48:00,1715E-3,5C000400,-0724,0835,12033,027.4,045.4,0.222,749.8,01.17,0.508
2017-05-08 03:49:00,1756E-3,5C000400,-0724,0835,12109,027.4,045.4,0.222,749.8,01.17,0.508
2017-05-08 03:50:00,1769E-3,5C000400,-0724,0835,12101,027.3,045.4,0.222,749.8,01.17,0.508
2017-05-08 03:51:00,1759E-3,5C000400,-0724,0835,12140,027.4,045.4,0.222,749.8,01.17,0.508
2017-05-08 03:52:00,1849E-3,5C000400,-0724,0836,12106,027.4,045.4,0.222,749.8,01.17,0.508
2017-05-08 03:53:00,1630E-3,5C000400,-0724,0836,12222,027.4,045.4,0.222,749.8,01.17,0.508
2017-05-08 03:54:00,1760E-3,5C000400,-0724,0836,12133,027.4,045.4,0.222,749.8,01.17,0.508
2017-05-08 03:55:00,1651E-3,5C000400,-0724,0836,12148,027.4,045.4,0.222,749.8,01.17,0.508
2017-05-08 03:56:00,1851E-3,5C000400,-0724,0836,12081,027.4,045.5,0.222,749.8,01.17,0.508
2017-05-08 03:57:00,1776E-3,5C000400,-0724,0835,12159,027.4,045.4,0.222,749.8,01.17,0.508
2017-05-08 03:58:00,1680E-3,5C000400,-0724,0835,12078,027.3,045.4,0.222,749.8,01.17,0.508
2017-05-08 03:59:00,1687E-3,5C000400,-0724,0836,12209,027.3,045.4,0.222,749.8,01.17,0.508
2017-05-08 04:00:00,1574E-3,5C000400,-0724,0835,12126,027.3,045.4,0.222,749.8,01.17,0.508
2017-05-08 04:01:00,1723E-3,5C000400,-0724,0835,12146,027.3,045.4,0.222,749.8,01.17,0.508
2017-05-08 04:02:00,1611E-3,5C000400,-0724,0835,12111,027.3,045.4,0.222,749.8,01.17,0.508
2017-05-08 04:03:00,1755E-3,5C000400,-0724,0836,12141,027.3,045.4,0.222,749.8,01.17,0.508
2017-05-08 04:04:00,1698E-3,5C000400,-0724,0834,12303,027.3,045.4,0.222,749.8,01.17,0.508
2017-05-08 04:05:00,1713E-3,5C000400,-0724,0836,11972,027.3,045.4,0.223,749.8,01.17,0.508
2017-05-08 04:06:00,1621E-3,5C000400,-0724,0835,12232,027.3,045.5,0.222,749.8,01.17,0.508
2017-05-08 04:07:00,1724E-3,5C000400,-0724,0835,12141,027.3,045.5,0.222,749.8,01.17,0.508
2017-05-08 04:08:00,1793E-3,5C000400,-0724,0835,12191,027.2,045.4,0.222,749.8,01.17,0.508
2017-05-08 04:09:00,1690E-3,5C000400,-0724,0835,12139,027.3,045.4,0.223,749.8,01.17,0.508
2017-05-08 04:10:00,1827E-3,5C000400,-0724,0834,12157,027.2,045.4,0.222,749.8,01.17,0.508
2017-05-08 04:11:00,1678E-3,5C000400,-0724,0835,12282,027.3,045.4,0.223,749.8,01.17,0.508
2017-05-08 04:12:00,1714E-3,5C000400,-0724,0834,12129,027.3,045.4,0.223,749.8,01.17,0.508
2017-05-08 04:13:00,1728E-3,5C000400,-0724,0835,12185,027.3,045.4,0.223,749.8,01.17,0.508
2017-05-08 04:14:00,1614E-3,5C000400,-0724,0835,12236,027.3,045.4,0.222,749.8,01.17,0.508
2017-05-08 04:15:00,1663E-3,5C000400,-0724,0835,12014,027.3,045.5,0.223,749.8,01.17,0.508
2017-05-08 04:16:00,1656E-3,5C000400,-0724,0836,12000,027.3,045.4,0.222,749.8,01.17,0.508
2017-05-08 04:17:00,1707E-3,5C000400,-0724,0835,12150,027.3,045.4,0.222,749.9,01.17,0.508
2017-05-08 04:18:00,1673E-3,5C000400,-0724,0835,12210,027.3,045.4,0.222,749.8,01.17,0.508
2017-05-08 04:19:00,1727E-3,5C000400,-0724,0835,11988,027.3,045.4,0.222,749.8,01.17,0.508
2017-05-08 04:20:00,1708E-3,5C000400,-0724,0836,12232,027.3,045.5,0.222,749.8,01.17,0.508